FW1212 Weather Reports


time (UTC)temp
C
wind
direction
speed
KPH
gust
KPH
rain 1hr
cm
rain 24hr
cm
rain mn
cm
humidity
%
barometer
mb
20260507060027 18 92 4.8 16.1 0.00 0.00 0.00 52 1013.2
20260507054515 17 182 4.8 14.5 0.00 0.00 0.00 53 1013.2
20260507053015 16 50 6.4 16.1 0.00 0.00 0.00 54 1013.1
20260507051510 16 129 6.4 14.5 0.00 0.00 0.00 57 1013.1
20260507050018 15 115 3.2 14.5 0.00 0.00 0.00 61 1013.0
20260507044521 15 94 4.8 9.7 0.00 0.00 0.00 64 1013.0
20260507043007 13 321 0.0 0.0 0.00 0.00 0.00 72 1013.0
20260507041506 12 291 0.0 0.0 0.00 0.00 0.00 76 1012.9
20260507040007 10 291 0.0 1.6 0.00 0.00 0.00 80 1012.9
20260507034503 9 289 0.0 3.2 0.00 0.00 0.00 81 1012.7
20260507033008 8 289 0.0 4.8 0.00 0.00 0.00 82 1012.5
20260507031559 8 274 0.0 3.2 0.00 0.00 0.00 82 1012.4
20260507030108 7 273 0.0 3.2 0.00 0.00 0.00 82 1012.3
20260507024612 7 273 1.6 4.8 0.00 0.00 0.00 82 1012.2
20260507023054 8 234 0.0 0.0 0.00 0.00 0.00 82 1012.2
20260507021613 8 234 0.0 3.2 0.00 0.00 0.00 81 1012.2
20260507020100 8 102 0.0 0.0 0.00 0.00 0.00 81 1012.4
20260507014608 8 102 0.0 0.0 0.00 0.00 0.00 80 1012.3
20260507013051 9 102 0.0 0.0 0.00 0.00 0.00 80 1012.2
20260507011543 9 102 0.0 0.0 0.00 0.00 0.00 78 1012.2
20260507010042 10 102 0.0 0.0 0.00 0.00 0.00 77 1012.1
20260507004541 11 102 0.0 0.0 0.00 0.00 0.00 76 1012.1
20260507003034 11 102 0.0 0.0 0.00 0.00 0.00 75 1012.0
20260507001529 12 102 0.0 0.0 0.00 0.00 0.00 74 1012.0
20260507000028 12 102 0.0 3.2 0.00 0.00 0.00 70 1012.0
20260506234525 12 102 0.0 3.2 0.00 0.00 0.00 70 1012.0
20260506233023 13 102 0.0 1.6 0.00 0.00 0.00 67 1012.0
20260506231520 13 102 1.6 4.8 0.00 0.00 0.00 66 1012.0
20260506230020 13 134 0.0 1.6 0.00 0.00 0.00 66 1012.0
20260506224517 14 134 0.0 4.8 0.00 0.00 0.00 64 1012.0
20260506223014 15 98 0.0 4.8 0.00 0.00 0.00 62 1012.0
20260506221510 15 85 0.0 4.8 0.00 0.00 0.00 61 1011.8
20260506220007 16 129 0.0 6.4 0.00 0.00 0.00 60 1011.8
20260506214505 16 104 1.6 4.8 0.00 0.00 0.00 59 1011.6
20260506213006 16 125 1.6 8.0 0.00 0.00 0.00 58 1011.6
20260506211601 16 122 3.2 12.9 0.00 0.00 0.00 58 1011.5
20260506210058 17 103 4.8 12.9 0.00 0.00 0.00 57 1011.5
20260506204600 17 116 1.6 6.4 0.00 0.00 0.00 57 1011.2
20260506203056 17 74 3.2 6.4 0.00 0.00 0.00 56 1011.1
20260506201620 18 81 4.8 11.3 0.00 0.00 0.00 54 1010.9
20260506200055 18 111 4.8 16.1 0.00 0.00 0.00 53 1010.8
20260506194555 18 58 4.8 11.3 0.00 0.00 0.00 53 1010.8
20260506193056 18 112 3.2 11.3 0.00 0.00 0.00 53 1010.7
20260506191555 18 73 1.6 6.4 0.00 0.00 0.00 53 1010.7
20260506190052 17 50 1.6 4.8 0.00 0.00 0.00 55 1010.5
20260506184555 18 54 0.0 3.2 0.00 0.00 0.00 55 1010.4
20260506183054 19 48 1.6 6.4 0.00 0.00 0.00 49 1010.1
20260506181551 20 86 1.6 6.4 0.00 0.00 0.00 45 1009.9
20260506180051 21 89 1.6 4.8 0.00 0.00 0.00 44 1009.7
20260506174550 21 106 1.6 6.4 0.00 0.00 0.00 42 1009.5
20260506173112 22 108 1.6 4.8 0.00 0.00 0.00 42 1009.3
20260506171555 22 84 1.6 4.8 0.00 0.00 0.00 40 1009.2
20260506170050 23 98 1.6 8.0 0.00 0.00 0.00 38 1009.2
20260506164549 24 85 1.6 9.7 0.00 0.00 0.00 37 1009.2
20260506163101 25 104 3.2 11.3 0.00 0.00 0.00 36 1009.2
20260506161547 25 60 6.4 12.9 0.00 0.00 0.00 33 1009.2
20260506160046 25 117 6.4 14.5 0.00 0.00 0.00 32 1009.2
20260506154550 26 83 4.8 14.5 0.00 0.00 0.00 32 1009.2
20260506153047 26 122 6.4 19.3 0.00 0.00 0.00 31 1009.3
20260506151544 26 95 8.0 17.7 0.00 0.00 0.00 32 1009.2
20260506150042 26 74 4.8 16.1 0.00 0.00 0.00 32 1009.4
20260506144544 26 101 9.7 17.7 0.00 0.00 0.00 30 1009.3
20260506143041 26 81 4.8 17.7 0.00 0.00 0.00 30 1009.4
20260506141539 27 144 4.8 16.1 0.00 0.00 0.00 29 1009.4
20260506140049 27 152 4.8 16.1 0.00 0.00 0.00 28 1009.4
20260506134537 27 45 8.0 16.1 0.00 0.00 0.00 30 1009.5
20260506133037 26 75 8.0 22.5 0.00 0.00 0.00 29 1009.5
20260506131535 27 77 9.7 16.1 0.00 0.00 0.00 30 1009.6
20260506130035 27 360 8.0 20.9 0.00 0.00 0.00 31 1009.7
20260506124532 27 65 3.2 12.9 0.00 0.00 0.00 29 1009.8
20260506123031 26 120 4.8 20.9 0.00 0.00 0.00 32 1009.9
20260506121530 27 127 4.8 17.7 0.00 0.00 0.00 32 1010.1
20260506120032 27 125 8.0 16.1 0.00 0.00 0.00 32 1010.3
20260506114527 26 62 3.2 16.1 0.00 0.00 0.00 32 1010.4
20260506113024 26 164 4.8 17.7 0.00 0.00 0.00 32 1010.5
20260506111527 26 76 4.8 16.1 0.00 0.00 0.00 31 1010.6
20260506110021 26 156 8.0 16.1 0.00 0.00 0.00 35 1010.8
20260506104518 25 156 8.0 16.1 0.00 0.00 0.00 35 1010.9
20260506103020 25 162 9.7 17.7 0.00 0.00 0.00 35 1011.0
20260506101513 25 172 6.4 22.5 0.00 0.00 0.00 36 1011.0
20260506100013 25 140 8.0 16.1 0.00 0.00 0.00 36 1011.1
20260506094513 25 99 4.8 19.3 0.00 0.00 0.00 38 1011.1
20260506093013 24 123 9.7 16.1 0.00 0.00 0.00 39 1011.2
20260506091508 24 86 9.7 14.5 0.00 0.00 0.00 41 1011.2
20260506090003 23 92 8.0 19.3 0.00 0.00 0.00 42 1011.3
20260506084503 23 151 6.4 17.7 0.00 0.00 0.00 43 1011.3
20260506083058 22 169 6.4 14.5 0.00 0.00 0.00 46 1011.3
20260506081554 21 85 9.7 19.3 0.00 0.00 0.00 47 1011.3
20260506073045 19 77 8.0 16.1 0.00 0.00 0.00 54 1011.5
20260506071542 18 88 6.4 12.9 0.00 0.00 0.00 56 1011.4
20260506061537 16 142 8.0 17.7 0.00 0.00 0.00 60 1011.4